Regional Weather Roundup
Issued by NWS

Home | Current Version | Previous Version | Graphics & Text | Print | Product List | Glossary On
Versions: 1 2 3 4 5 6 7 8 9 10 11 12 13 14 15 16 17 18 19 20 21 22 23 24 25 26 27 28 29 30 31 32 33 34 35 36 37 38 39 40 41 42 43 44 45 46 47 48 49 50
146
ASUS43 KFSD 212210
RWRSD

WEATHER ROUNDUP FOR SOUTH DAKOTA
NATIONAL WEATHER SERVICE SIOUX FALLS SD
500 PM CDT THU MAY 21 2015

NOTE: "FAIR" INDICATES FEW OR NO CLOUDS BELOW 12,000 FEET WITH NO
SIGNIFICANT WEATHER AND/OR OBSTRUCTIONS TO VISIBILITY.


SDZ001>005-009-010-012>017-212300-
NORTHWEST AND NORTH CENTRAL SOUTH DAKOTA

CITY           SKY/WX    TMP DP  RH WIND       PRES   REMARKS
BUFFALO          N/A     67  29  24 SE15      30.09F
FAITH            N/A     68  28  22 S9G18     30.16F
MOBRIDGE       SUNNY     76  28  17 CALM      30.12F
$$

SDZ012>016-024>037-041>051-057-063-072>074-212300-
SOUTHWEST AND SOUTH CENTRAL SOUTH DAKOTA

CITY           SKY/WX    TMP DP  RH WIND       PRES   REMARKS
RAPID CTY ARPT SUNNY     63  34  33 SE16      30.16F
PIERRE         SUNNY     70  33  25 VRB3      30.15F
CUSTER         CLOUDY    50  35  56 SE10      30.19F
ELLSWORTH AFB  SUNNY     63  34  33 S16       30.16F
PHILIP         SUNNY     67  32  27 E15G21    30.16F
PINE RIDGE     CLOUDY    59  40  49 S12       30.18F
SPEARFISH      FAIR      63  28  27 E22G28    30.12F
WINNER         FAIR      69  32  25 VRB6      30.18F
$$

SDZ004>011-016>023-039-040-212300-
NORTHEAST SOUTH DAKOTA

CITY           SKY/WX    TMP DP  RH WIND       PRES   REMARKS
ABERDEEN       SUNNY     75  37  25 N9        30.11F
WATERTOWN      SUNNY     73  39  29 N13       30.12F
BROOKINGS      PTSUNNY   73  36  25 NW17G24   30.12F
SISSETON         N/A     73  28  18 N15       30.10F
$$

SDZ017-020-022-023-036>040-048>070-212300-
SOUTHEAST SOUTH DAKOTA

CITY           SKY/WX    TMP DP  RH WIND       PRES   REMARKS
SIOUX FALLS    MOSUNNY   70  36  28 NW10      30.12S
HURON          MOSUNNY   76  33  21 NW8       30.12F
CHAMBERLAIN    SUNNY     69  33  26 W5        30.17F
MITCHELL       SUNNY     75  35  23 W10       30.15F
YANKTON        SUNNY     72  39  30 NW7       30.15F
$$

ABBREVIATIONS USED IN REMARKS
   TC - TEMPERATURE IN CELSIUS
  WCI - WIND CHILL INDEX
   HX - HEAT INDEX
  VSB - VISIBILITY




USA.gov is the U.S. government's official web portal to all federal, state and local government web resources and services.